EW5212 Weather Reports


time (UTC)temp
C
wind
direction
speed
KPH
gust
KPH
rain 1hr
cm
rain 24hr
cm
rain mn
cm
humidity
%
barometer
mb
20260902065517 22 0.0 0.0 0.00 0.00 0.00 99 1017.7
20260902064517 22 0.0 0.0 0.00 0.00 0.00 99 1017.6
20260902063516 22 0.0 0.0 0.00 0.00 0.00 99 1017.5
20260902062517 22 0.0 0.0 0.00 0.00 0.00 99 1017.6
20260902061518 22 0.0 0.0 0.00 0.00 0.00 99 1017.6
20260902060517 22 0.0 0.0 0.00 0.00 0.00 99 1017.7
20260902055516 22 0.0 0.0 0.00 0.00 0.00 99 1017.4
20260902054517 22 0.0 0.0 0.00 0.00 0.00 98 1017.5
20260902053537 22 0.0 0.0 0.00 0.00 0.00 99 1017.5
20260902052537 22 0.0 0.0 0.00 0.00 0.00 98 1017.5
20260902051516 23 0.0 0.0 0.00 0.00 0.00 98 1017.6
20260902050522 23 0.0 0.0 0.00 0.00 0.00 98 1017.7
20260902045517 23 0.0 0.0 0.00 0.00 0.00 98 1017.6
20260902044536 23 0.0 0.0 0.00 0.00 0.00 98 1017.5
20260902043517 23 0.0 0.0 0.00 0.00 0.00 98 1017.3
20260902042517 23 0.0 0.0 0.00 0.00 0.00 98 1017.4
20260902041537 23 0.0 0.0 0.00 0.00 0.00 98 1017.3
20260902040516 23 0.0 0.0 0.00 0.00 0.00 98 1017.2
20260902035517 23 0.0 0.0 0.00 0.00 0.00 98 1017.2
20260902034537 23 0.0 0.0 0.00 0.00 0.00 98 1017.0
20260902033516 23 0.0 0.0 0.00 0.00 0.00 97 1016.8
20260902032517 23 0.0 0.0 0.00 0.00 0.00 97 1016.7
20260902031516 23 0.0 0.0 0.00 0.00 0.00 97 1016.7
20260902030516 24 0.0 0.0 0.00 0.00 0.00 97 1016.8
20260902025517 24 0.0 0.0 0.00 0.00 0.00 97 1016.8
20260902024517 24 0.0 0.0 0.00 0.00 0.00 97 1016.8
20260902023516 24 0.0 0.0 0.00 0.00 0.00 96 1016.7
20260902022517 24 0.0 0.0 0.00 0.00 0.00 96 1016.9
20260902021516 24 0.0 0.0 0.00 0.00 0.00 96 1016.9
20260902020516 24 0.0 0.0 0.00 0.00 0.00 95 1016.8
20260902015516 25 0.0 0.0 0.00 0.00 0.00 95 1016.7
20260902014536 25 0.0 0.0 0.00 0.00 0.00 95 1016.5
20260902013517 25 0.0 0.0 0.00 0.00 0.00 95 1016.3
20260902012517 25 0.0 0.0 0.00 0.00 0.00 95 1016.1
20260902011516 25 0.0 0.0 0.00 0.00 0.00 94 1016.0
20260902010516 25 0.0 0.0 0.00 0.00 0.00 94 1015.9
20260902005516 26 0.0 0.0 0.00 0.00 0.00 93 1015.9
20260902004536 26 0.0 0.0 0.00 0.00 0.00 92 1015.8
20260902003517 26 0.0 0.0 0.00 0.00 0.00 91 1015.6
20260902002516 26 0.0 0.0 0.00 0.00 0.00 90 1015.6
20260902001516 26 0.0 0.0 0.00 0.00 0.00 89 1015.6
20260902000516 27 0.0 0.0 0.00 0.00 0.00 89 1015.6
20260901235517 27 0.0 0.0 0.00 0.00 0.00 87 1015.6
20260901234516 28 0.0 0.0 0.00 0.00 0.00 86 1015.7
20260901233536 28 0.0 0.0 0.00 0.00 0.00 83 1015.6
20260901232536 29 0.0 0.0 0.00 0.00 0.00 83 1015.7
20260901231516 30 0.0 0.0 0.00 0.00 0.00 80 1015.7
20260901230516 31 0.0 1.6 0.00 0.00 0.00 78 1015.8
20260901225516 32 0.0 0.0 0.00 0.00 0.00 73 1015.8
20260901224516 33 0.0 1.6 0.00 0.00 0.00 72 1015.9
20260901223516 33 0.0 0.0 0.00 0.00 0.00 71 1015.9
20260901222516 33 0.0 0.0 0.00 0.00 0.00 69 1015.9
20260901221516 35 0.0 1.6 0.00 0.00 0.00 65 1016.0
20260901220516 35 0.0 0.0 0.00 0.00 0.00 64 1016.1
20260901215516 34 0.0 1.6 0.00 0.00 0.00 68 1016.2
20260901214516 34 0.0 1.6 0.00 0.00 0.00 67 1016.2
20260901213518 35 0.0 0.0 0.00 0.00 0.00 66 1016.2
20260901212516 35 0.0 0.0 0.00 0.00 0.00 64 1016.1
20260901211516 35 0.0 0.0 0.00 0.00 0.00 63 1016.2
20260901210516 35 0.0 3.2 0.00 0.00 0.00 63 1016.3
20260901205516 35 0.0 3.2 0.00 0.00 0.00 62 1016.4
20260901204516 35 0.0 1.6 0.00 0.00 0.00 61 1016.4
20260901203536 35 0.0 3.2 0.00 0.00 0.00 59 1016.4
20260901202516 35 0.0 1.6 0.00 0.00 0.00 63 1016.5
20260901201516 34 0.0 0.0 0.00 0.00 0.00 64 1016.6
20260901200516 35 0.0 0.0 0.00 0.00 0.00 62 1016.9
20260901195516 35 0.0 0.0 0.00 0.00 0.00 61 1016.9
20260901194516 34 0.0 3.2 0.00 0.00 0.00 61 1016.9
20260901193516 34 45 1.6 3.2 0.00 0.00 0.00 64 1016.9
20260901192516 33 0.0 1.6 0.00 0.00 0.00 62 1016.9
20260901191516 35 0.0 1.6 0.00 0.00 0.00 61 1017.1
20260901190616 35 0.0 3.2 0.00 0.00 0.00 59 1017.2
20260901185516 33 0.0 3.2 0.00 0.00 0.00 61 1017.4
20260901184515 33 0.0 1.6 0.00 0.00 0.00 64 1017.3
20260901183515 34 0.0 0.0 0.00 0.00 0.00 64 1017.5
20260901182516 35 45 1.6 4.8 0.00 0.00 0.00 63 1017.6
20260901181516 35 0.0 1.6 0.00 0.00 0.00 62 1017.7
20260901180536 35 0.0 1.6 0.00 0.00 0.00 63 1017.4
20260901175516 35 45 1.6 3.2 0.00 0.00 0.00 60 1017.4
20260901174516 35 113 1.6 1.6 0.00 0.00 0.00 59 1017.3
20260901173516 34 68 1.6 3.2 0.00 0.00 0.00 63 1017.4
20260901172516 34 0 1.6 3.2 0.00 0.00 0.00 64 1017.4
20260901171516 34 45 1.6 3.2 0.00 0.00 0.00 63 1017.4
20260901170516 35 293 1.6 3.2 0.00 0.00 0.00 63 1017.4
20260901165516 34 68 1.6 3.2 0.00 0.00 0.00 64 1017.6
20260901164516 33 45 1.6 3.2 0.00 0.00 0.00 68 1017.7
20260901163536 33 45 1.6 3.2 0.00 0.00 0.00 67 1017.9
20260901162536 34 315 1.6 4.8 0.00 0.00 0.00 67 1018.1
20260901161516 33 270 1.6 6.4 0.00 0.00 0.00 66 1018.4
20260901160516 33 338 1.6 3.2 0.00 0.00 0.00 68 1018.4
20260901155516 33 270 1.6 4.8 0.00 0.00 0.00 68 1018.5
20260901154515 32 270 1.6 6.4 0.00 0.00 0.00 71 1018.5
20260901153515 32 45 1.6 8.0 0.00 0.00 0.00 70 1018.7
20260901152516 32 225 1.6 6.4 0.00 0.00 0.00 71 1018.7
20260901151535 32 23 1.6 6.4 0.00 0.00 0.00 72 1018.7
20260901150516 32 0 1.6 1.6 0.00 0.00 0.00 74 1018.9
20260901145515 32 270 3.2 8.0 0.00 0.00 0.00 72 1018.9
20260901144535 31 0.0 0.0 0.00 0.00 0.00 76 1018.9
20260901143516 31 0.0 3.2 0.00 0.00 0.00 78 1018.9
20260901142516 30 248 1.6 8.0 0.00 0.00 0.00 78 1018.8
20260901141516 30 0.0 9.7 0.00 0.00 0.00 78 1018.8
20260901140515 30 0.0 6.4 0.00 0.00 0.00 79 1018.8
20260901135516 29 0.0 1.6 0.00 0.00 0.00 84 1018.8
20260901134515 28 0.0 3.2 0.00 0.00 0.00 85 1018.8
20260901133516 27 0.0 1.6 0.00 0.00 0.00 87 1018.8
20260901132518 27 0.0 1.6 0.00 0.00 0.00 91 1018.8
20260901131515 26 0.0 1.6 0.00 0.00 0.00 96 1018.8
20260901130516 25 0.0 1.6 0.00 0.00 0.00 100 1019.0
20260901125515 24 0.0 0.0 0.00 0.00 0.00 100 1019.0
20260901124535 23 0.0 0.0 0.00 0.00 0.00 100 1018.8
20260901123515 23 0.0 0.0 0.00 0.00 0.00 100 1018.8
20260901122515 23 0.0 0.0 0.00 0.00 0.00 100 1018.8
20260901121515 22 0.0 0.0 0.00 0.00 0.00 100 1018.8
20260901120516 22 0.0 0.0 0.00 0.00 0.00 100 1018.8
20260901115515 22 0.0 0.0 0.00 0.00 0.00 100 1018.8
20260901114515 22 0.0 0.0 0.00 0.00 0.00 100 1018.8
20260901113515 21 0.0 0.0 0.00 0.00 0.00 100 1018.7
20260901112516 21 0.0 0.0 0.00 0.00 0.00 100 1018.5
20260901111516 21 0.0 0.0 0.00 0.00 0.00 100 1018.4
20260901110516 21 0.0 0.0 0.00 0.00 0.00 100 1018.4
20260901105515 21 0.0 0.0 0.00 0.00 0.00 100 1018.5
20260901104515 21 0.0 0.0 0.00 0.00 0.00 100 1018.2
20260901103515 21 0.0 0.0 0.00 0.00 0.00 100 1018.1
20260901102520 21 0.0 0.0 0.00 0.00 0.00 100 1018.1
20260901101515 21 0.0 0.0 0.00 0.00 0.00 100 1018.2
20260901100515 21 0.0 0.0 0.00 0.00 0.00 100 1018.3
20260901095515 21 0.0 0.0 0.00 0.00 0.00 100 1018.5
20260901094515 21 0.0 0.0 0.00 0.00 0.00 100 1018.4
20260901093515 21 0.0 0.0 0.00 0.00 0.00 100 1018.3
20260901092515 21 0.0 0.0 0.00 0.00 0.00 100 1018.2
20260901091515 21 0.0 0.0 0.00 0.00 0.00 99 1018.2
20260901090516 21 0.0 0.0 0.00 0.00 0.00 99 1018.3
20260901085515 21 0.0 0.0 0.00 0.00 0.00 99 1018.3
20260901084516 21 0.0 0.0 0.00 0.00 0.00 99 1018.2
20260901083515 21 0.0 0.0 0.00 0.00 0.00 99 1018.3
20260901082515 21 0.0 0.0 0.00 0.00 0.00 99 1018.3
20260901081515 21 0.0 0.0 0.00 0.00 0.00 99 1018.3
20260901080516 21 0.0 0.0 0.00 0.00 0.00 99 1018.4
20260901075535 21 0.0 0.0 0.00 0.00 0.00 99 1018.3
20260901074515 21 0.0 0.0 0.00 0.00 0.00 99 1018.3
20260901073515 21 0.0 0.0 0.00 0.00 0.00 99 1018.3
20260901072535 21 0.0 0.0 0.00 0.00 0.00 99 1018.2
20260901071515 21 0.0 0.0 0.00 0.00 0.00 99 1018.4
20260901070515 21 0.0 0.0 0.00 0.00 0.00 99 1018.6